sat.trackr.live / text

‹ back to catalog

STARLINK-32346

NORAD 61849 · 2024-202E

PAYLOAD ACTIVE UNKNOWN

§ Identity

Operator
Country
US
Launch date
2024-11-07
Launch site
AFETR
Launch vehicle
Mass (kg)
RCS (m²)

Purposes: comms

External: N2YO · Heavens-Above · Gunter

§ Orbital elements

Epoch: 2026-09-21T04:25:12.025344Z

Period
94.27 min
Inclination
43.0016°
Eccentricity
0.0001256
Mean motion
15.27574480 rev/d
Perigee alt
482.2 km
Apogee alt
483.9 km
Semi-major
6,861.2 km
B*
-4.3447e-5
RAAN
202.8921°
Arg perigee
264.8970°
Mean anomaly
95.1738°
Rev number
10,535

§ Raw data

STARLINK-323461 61849U 24202E   26264.18416696 -.00001457  00000+0 -43447-4 0  99932 61849  43.0016 202.8921 0001256 264.8970  95.1738 15.27574480105358

JSON: /api/v1/satellites/61849 · /tle

For live sub-satellite position, see the globe view (requires WebGL).

§ Visibility from observer

Set your observer location to see the next 7 days of passes ≥ 10°. The values pass through the URL so the page stays shareable.

No JS? Fill the form by hand. The geolocation button needs JavaScript.